Location: Elbart
(49.6135°N, 11.9134°E)
Time: 05:24:17
(UTC+00:00)

Cosmos 1833 Rocket - Pass Details

Date: 09 April 2020
Orbit: 834 x 838 km, 71.0° (Epoch: 29 May)

Event Time Altitude Azimuth Distance (km) Brightness Sun altitude
Exits shadow 20:39:36 50° 102° (ESE) 1,062 2.8 -23.3°
Drops below altitude 10° 20:44:46 10° 37° (NE) 2,460 5.2 -23.9°
Sets 20:47:17 0° 32° (NNE) 3,398 6.1 -24.1°
